Miscellaneous Local Product
Issued by NWS Hastings, NE

Home | Current Version | Previous Version | Graphics & Text | Print | Product List | Glossary On
Versions: 1 2 3 4 5 6 7 8 9 10 11 12 13 14 15 16 17 18 19 20 21 22 23 24 25 26 27 28 29 30 31 32 33 34 35 36 37 38 39 40 41 42 43 44 45 46 47 48 49 50
000
AXUS43 KGID 310402
MISGRI

GID CWA HOURLY WEATHER ROUNDUP
NATIONAL WEATHER SERVICE HASTINGS NE
1100 PM CDT THU JUL 30 2015

NOTE: "FAIR" INDICATES FEW OR NO CLOUDS BELOW 12,000 FEET WITH NO
SIGNIFICANT WEATHER AND/OR OBSTRUCTIONS TO VISIBILITY.

...SOUTH CENTRAL NEBRASKA...

CITY           SKY/WX    TMP DP  RH WIND       PRES   REMARKS
GRAND ISLAND   PTCLDY    72  66  81 S8        30.18R
HASTINGS       MOCLDY    76  67  73 MISG      30.19R
KEARNEY        MOCLDY    73  66  78 S6        30.19R
ORD            CLEAR     72  66  81 S6        30.16R
YORK           PTCLDY    72  64  78 S7        30.16S
AURORA         PTCLDY    73  67  80 S5        30.18R
LEXINGTON      MOCLDY    74  67  79 SE7       30.19F
HOLDREGE       MOCLDY    74  67  80 SE3       30.20R
HEBRON         CLEAR     73  67  80 S5        30.17R

...NEBRASKA PANHANDLE...

CITY           SKY/WX    TMP DP  RH WIND       PRES   REMARKS
CHADRON        CLEAR     65  51  60 CALM      30.22R
ALLIANCE       CLEAR     66  53  63 CALM      30.27R
SCOTTSBLUFF    CLEAR     71  49  45 NE9       30.26R
SIDNEY         CLEAR     66  58  75 CALM      30.31R

...WESTERN AND NORTH CENTRAL NEBRASKA...

CITY           SKY/WX    TMP DP  RH WIND       PRES   REMARKS
VALENTINE      CLEAR     66  53  63 CALM      30.20R
AINSWORTH      CLEAR     67  56  68 E3        30.21R
ONEILL         PTCLDY    74  67  76 NE5       30.16R
BROKEN BOW     PTCLDY    70  65  84 CALM      30.20R
IMPERIAL       PTCLDY    72  59  63 SE7       30.24R
NORTH PLATTE   MOCLDY    69  63  81 NE3       30.21R
MCCOOK         CLOUDY    77  62  59 S7        30.20R

...EASTERN NEBRASKA...

CITY           SKY/WX    TMP DP  RH WIND       PRES   REMARKS
NORFOLK        PTCLDY    73  67  81 NE6       30.13R
SO SIOUX CITY  CLEAR     75  68  78 S3        30.12R
TEKAMAH        CLEAR     71  68  90 S6        30.12R
COLUMBUS       CLEAR     75  63  64 SW6       30.15R
ALBION         CLEAR     73  66  77 SE3       30.15R
OMAHA EPPLEY   CLEAR     75  66  73 SE5       30.13R
OFFUTT AFB     CLEAR     72  66  80 VRB2      30.13R
MILLARD        CLEAR     74  67  77 CALM      30.13R
LINCOLN        CLEAR     74  61  63 S3        30.16R
NEBRASKA CITY  CLEAR     71  63  75 SW7       30.15R
BEATRICE       CLEAR     74  62  67 CALM      30.16R
FALLS CITY     CLEAR     74  65  73 S6        30.15R

...NORTHERN KANSAS...

CITY           SKY/WX    TMP DP  RH WIND       PRES   REMARKS
GOODLAND       CLOUDY    74  64  71 SW12      30.23F
HILL CITY      MOCLDY    76  65  68 S7        30.20R
NORTON         CLEAR     75  61  60 S7        30.19F
PHILLIPSBURG   CLEAR     79  70  73 CALM      30.18S
SMITH CENTER   CLEAR     73  66  78 SE6       30.18F
HAYS           CLEAR     73  63  68 SE8       30.20S
RUSSELL        CLEAR     72  68  87 S9        30.18R
CONCORDIA      CLEAR     73  68  84 S8        30.17R
SALINA         CLEAR     76  67  73 SE5       30.17R
TOPEKA         CLEAR     70  69  97 CALM      30.16R



USA.gov is the U.S. government's official web portal to all federal, state and local government web resources and services.